TimeEDT,TemperatureF,Dew PointF,Humidity,Sea Level PressureIn,VisibilityMPH,Wind Direction,Wind SpeedMPH,Gust SpeedMPH,PrecipitationIn,Events,Conditions,WindDirDegrees,DateUTC
12:56 AM,64.0,60.1,87,29.87,10.0,Calm,Calm,-,N/A,,Clear,0,2013-06-12 04:56:00
1:56 AM,62.1,60.1,93,29.88,6.0,Calm,Calm,-,N/A,,Clear,0,2013-06-12 05:56:00
2:13 AM,62.6,60.8,94,29.88,2.0,Calm,Calm,-,N/A,,Clear,0,2013-06-12 06:13:00
2:21 AM,62.6,60.8,94,29.88,5.0,Calm,Calm,-,N/A,,Clear,0,2013-06-12 06:21:00
2:56 AM,62.1,60.1,93,29.86,8.0,Calm,Calm,-,N/A,,Clear,0,2013-06-12 06:56:00
3:56 AM,61.0,59.0,93,29.87,7.0,Calm,Calm,-,N/A,,Clear,0,2013-06-12 07:56:00
4:36 AM,60.8,57.2,88,29.91,2.5,Calm,Calm,-,N/A,,Clear,0,2013-06-12 08:36:00
4:43 AM,60.8,57.2,88,29.91,5.0,Calm,Calm,-,N/A,,Clear,0,2013-06-12 08:43:00
4:56 AM,61.0,59.0,93,29.90,5.0,Calm,Calm,-,N/A,,Clear,0,2013-06-12 08:56:00
5:56 AM,62.1,59.0,90,29.88,7.0,SSE,3.5,-,N/A,,Clear,150,2013-06-12 09:56:00
6:56 AM,63.0,60.1,90,29.91,5.0,Calm,Calm,-,N/A,,Clear,0,2013-06-12 10:56:00
7:56 AM,68.0,64.0,87,29.89,8.0,Calm,Calm,-,N/A,,Clear,0,2013-06-12 11:56:00
8:56 AM,69.1,62.1,78,29.91,10.0,Calm,Calm,-,N/A,,Clear,0,2013-06-12 12:56:00
9:56 AM,70.0,63.0,78,29.92,10.0,Variable,3.5,-,N/A,,Scattered Clouds,0,2013-06-12 13:56:00
10:56 AM,70.0,63.0,78,29.92,9.0,Calm,Calm,-,N/A,,Overcast,0,2013-06-12 14:56:00
11:56 AM,72.0,64.0,76,29.89,10.0,SSE,5.8,-,0.00,,Partly Cloudy,150,2013-06-12 15:56:00
12:56 PM,75.9,64.9,69,29.82,10.0,South,12.7,-,N/A,,Clear,170,2013-06-12 16:56:00
1:56 PM,77.0,64.9,66,29.86,10.0,Calm,Calm,-,N/A,,Clear,0,2013-06-12 17:56:00
2:56 PM,75.9,64.9,69,29.83,10.0,SSE,5.8,-,N/A,,Clear,150,2013-06-12 18:56:00
3:56 PM,79.0,66.0,64,29.81,10.0,ESE,5.8,-,N/A,,Clear,110,2013-06-12 19:56:00
4:56 PM,77.0,64.0,64,29.83,10.0,Calm,Calm,-,N/A,,Clear,0,2013-06-12 20:56:00
5:56 PM,75.9,68.0,76,29.81,10.0,Calm,Calm,-,0.00,,Partly Cloudy,0,2013-06-12 21:56:00
6:56 PM,77.0,66.9,71,29.77,10.0,East,4.6,-,0.00,,Mostly Cloudy,80,2013-06-12 22:56:00
7:56 PM,75.0,66.0,73,29.75,10.0,East,3.5,-,N/A,,Partly Cloudy,90,2013-06-12 23:56:00
8:56 PM,73.0,66.9,81,29.72,10.0,East,8.1,-,N/A,,Partly Cloudy,100,2013-06-13 00:56:00
9:46 PM,73.4,66.2,78,29.72,10.0,ESE,6.9,-,N/A,Thunderstorm,Mostly Cloudy,120,2013-06-13 01:46:00
9:56 PM,72.0,66.9,84,29.68,2.5,East,10.4,16.1,0.19,Rain-Thunderstorm,Heavy Thunderstorms and Rain,100,2013-06-13 01:56:00
10:09 PM,71.6,68.0,88,29.69,5.0,ESE,8.1,-,0.03,Rain-Thunderstorm,Light Thunderstorms and Rain,110,2013-06-13 02:09:00
10:22 PM,71.6,66.2,83,29.68,5.0,ESE,10.4,-,0.03,,Scattered Clouds,120,2013-06-13 02:22:00
10:56 PM,70.0,66.9,90,29.64,4.0,East,6.9,-,0.03,,Mostly Cloudy,90,2013-06-13 02:56:00
11:38 PM,69.8,66.2,88,29.68,3.0,SSE,10.4,-,0.04,Rain-Thunderstorm,Light Rain,150,2013-06-13 03:38:00
11:46 PM,69.8,66.2,88,29.69,2.5,South,11.5,-,0.09,Rain-Thunderstorm,Rain,170,2013-06-13 03:46:00
11:56 PM,68.0,64.9,90,29.67,2.5,ESE,6.9,-,0.12,Rain-Thunderstorm,Rain,120,2013-06-13 03:56:00